Theta_e
296 297 296 296 297 297 296 297 298 299 299 300 300 301 302 302 303 304 305 307 307 308 310 310 311 314 317 321 324 325 323 322 318 316 317 317 317 320 318 316 317 316 317
296 295 295 295 296 296 297 298 299 299 300 301 301 301 302 302 303 303 304 306 307 308 310 310 312 316 316 318 321 322 323 323 321 314 313 313 314 313 312 310 309 310 310
294 294 294 294 295 296 297 298 300 300 300 300 300 300 301 303 303 304 305 306 307 308 310 310 312 315 316 318 320 319 321 320 318 313 310 312 311 310 307 308 309 309 312
294 294 293 294 296 296 298 298 299 299 298 298 299 300 301 303 303 305 306 306 307 309 311 311 312 313 313 316 317 320 318 315 314 312 311 309 309 308 307 305 305 308 307
293 293 294 295 296 297 297 298 298 298 298 298 298 299 300 301 305 302 305 307 308 309 311 313 314 316 317 319 318 316 314 311 310 310 308 306 304 303 303 305 304 305 306
293 294 295 295 295 296 296 297 297 297 297 297 297 298 298 300 300 302 304 308 309 309 309 307 308 310 312 312 312 311 312 311 309 307 305 304 305 304 303 304 303 301 300
293 293 293 294 294 295 296 296 296 296 296 296 296 297 297 298 300 302 304 304 302 302 302 304 305 307 308 307 307 307 307 307 309 310 304 303 302 304 304 301 299 299 302
292 292 293 293 293 294 295 295 295 296 296 296 296 297 297 298 299 299 301 301 300 300 300 301 301 302 303 304 303 302 303 304 305 305 304 304 305 304 305 305 303 302 303
291 291 292 293 293 294 294 294 295 295 295 296 295 295 296 297 297 298 300 300 299 299 300 301 301 301 300 300 302 301 300 301 301 301 300 299 298 298 301 303 301 302 300
290 292 293 293 293 293 293 294 295 295 294 295 295 295 296 295 295 296 298 300 297 298 298 298 300 299 298 298 302 301 299 300 302 303 302 303 303 303 303 305 303 301 299
292 293 293 293 293 294 294 294 294 293 293 293 294 295 295 295 295 295 295 296 296 297 297 297 298 297 296 296 298 302 299 301 300 301 302 304 304 303 304 304 303 302 300
293 292 292 293 293 293 293 294 293 292 292 292 293 293 294 295 297 296 295 297 299 298 298 300 298 295 294 295 296 295 296 300 304 303 301 299 299 299 301 301 302 301 300
292 292 292 293 293 293 292 292 292 291 291 291 291 291 291 293 295 295 295 295 297 299 299 297 296 296 296 299 297 297 299 303 302 300 299 299 300 300 301 300 300 300 300
291 292 292 292 292 292 293 292 291 290 291 291 291 290 291 292 292 294 296 297 297 298 299 299 298 297 297 298 300 300 301 301 300 299 299 300 301 300 298 298 296 296 297
292 292 291 292 291 292 292 291 291 291 290 290 290 290 290 289 290 291 293 294 295 295 297 297 296 296 296 297 298 299 300 300 299 299 299 298 297 298 296 296 295 294 294
292 292 291 291 291 291 291 291 292 291 290 290 290 290 291 290 290 290 290 290 290 291 293 292 292 294 295 296 297 298 298 298 298 298 297 297 295 295 294 294 294 293 292
293 292 292 291 291 289 290 289 288 291 291 290 289 289 289 289 289 289 290 290 289 291 291 290 290 291 292 294 295 296 295 296 297 296 294 294 294 294 293 293 293 293 292
294 293 291 291 290 290 290 290 289 288 287 288 290 289 289 289 289 289 289 290 290 290 289 289 289 290 290 291 293 294 295 295 296 295 294 294 293 293 292 291 292 291 291
293 291 291 291 291 291 291 290 289 288 288 287 288 288 288 289 288 288 289 289 288 288 289 289 289 289 289 291 292 293 294 293 293 294 294 293 293 292 292 292 292 288 290
293 291 290 291 291 291 291 290 289 288 287 286 285 285 287 288 287 287 288 288 288 288 288 288 289 289 289 290 291 291 292 292 292 293 292 292 293 292 291 291 291 291 291
292 292 287 292 291 291 290 290 289 287 286 286 286 285 283 286 285 285 286 287 287 288 288 288 288 288 289 290 290 290 290 291 291 292 292 292 292 291 292 292 292 292 292
293 293 292 292 291 291 290 290 289 288 287 286 285 286 283 285 285 286 286 287 286 287 287 288 289 289 290 290 290 290 290 290 291 291 291 291 292 292 292 292 292 291 292
294 293 292 292 292 289 290 290 289 288 286 285 285 285 285 285 285 286 286 286 286 287 288 288 288 289 290 291 291 291 289 289 290 292 291 292 291 291 291 290 291 291 290
293 293 292 292 291 290 290 289 288 286 286 285 285 285 284 284 285 285 286 287 287 287 288 288 288 289 289 290 291 292 291 290 292 292 292 291 291 290 290 289 290 291 291
293 292 292 291 291 290 289 288 287 286 285 284 284 284 285 285 285 286 287 287 287 287 287 288 289 289 289 290 290 290 288 286 290 287 293 292 290 290 289 289 291 291 291
293 293 292 291 291 290 289 288 287 286 285 285 284 284 284 284 285 286 286 287 287 287 287 288 288 289 289 290 289 286 286 286 289 287 292 291 290 289 290 290 291 291 291
Wind_Speed
12 13 16 15 14 15 14 14 15 16 16 16 16 16 15 15 13 12 13 12 12 10 9 9 11 11 9 6 6 6 5 5 6 1 1 1 2 6 6 6 8 6 6
15 16 16 15 14 14 14 16 16 16 15 15 15 15 15 14 13 13 13 12 12 11 11 11 11 7 9 9 8 10 6 5 5 4 2 2 2 4 6 7 5 4 3
15 16 15 14 15 15 16 16 15 15 15 14 14 14 14 13 13 13 13 13 11 11 9 9 7 6 5 4 7 7 5 3 4 3 4 2 2 4 5 4 4 4 3
14 14 14 15 15 15 15 15 14 14 14 13 13 13 13 12 12 13 12 11 10 9 9 8 8 8 7 7 6 8 4 4 4 4 3 3 3 2 4 5 4 2 1
13 13 14 14 15 15 14 13 13 13 13 13 13 12 12 11 8 9 8 9 8 8 8 7 6 9 13 10 5 5 6 5 5 6 5 3 4 5 5 1 3 3 2
13 13 13 14 14 14 14 14 13 13 13 13 13 13 13 10 25 12 9 5 5 5 2 3 4 7 8 9 11 10 5 7 7 4 3 6 7 4 3 3 3 2 2
12 13 13 13 13 14 14 13 13 13 13 13 13 13 13 14 24 18 18 8 8 8 7 5 5 5 9 11 17 19 17 15 11 4 9 5 5 3 4 3 3 3 2
11 12 12 13 13 13 13 13 13 11 12 12 13 14 12 13 22 17 19 11 11 11 10 9 8 9 8 11 14 14 13 11 10 8 9 8 9 5 5 4 3 5 3
12 12 12 12 12 13 13 13 12 11 12 11 12 14 14 15 25 20 14 12 12 13 11 11 9 9 12 13 15 16 15 13 15 19 17 14 12 10 7 5 4 4 2
12 12 11 11 11 12 12 12 11 10 10 9 12 14 21 16 26 25 17 9 12 9 10 10 17 12 16 15 12 12 13 8 9 9 7 9 9 8 9 6 2 2 2
11 11 10 10 10 10 11 10 12 10 10 11 11 12 13 15 17 22 20 10 7 7 8 7 6 15 16 15 12 9 7 6 8 7 6 5 7 6 6 5 6 3 2
10 11 11 11 8 9 11 10 12 11 9 10 11 9 8 10 18 20 19 18 14 10 8 8 8 16 15 14 10 11 11 8 6 7 6 5 5 5 5 5 6 6 6
11 11 10 10 9 10 10 11 10 9 8 8 7 8 8 8 8 16 16 17 17 12 9 12 17 16 15 14 17 16 11 7 6 6 5 5 4 3 3 3 3 3 5
8 10 9 10 12 10 7 7 8 9 8 8 9 8 9 10 10 8 8 9 13 11 13 13 13 15 18 13 11 11 8 6 6 5 4 3 3 3 4 3 2 3 1
8 8 10 8 8 7 6 8 7 9 9 6 7 8 8 9 9 12 13 9 8 10 10 10 11 10 9 8 8 9 8 7 7 6 5 4 4 3 3 3 3 2 3
8 8 7 6 5 5 5 5 7 13 20 19 19 13 6 12 16 18 21 21 19 15 10 8 8 8 9 8 9 8 8 8 6 5 5 4 4 4 3 3 3 4 4
7 8 6 6 5 6 6 6 6 7 9 15 18 21 19 17 21 20 17 20 23 14 10 9 9 8 7 6 6 7 6 6 6 5 5 4 4 3 4 5 4 4 3
6 10 5 4 4 5 5 6 6 7 8 9 11 16 20 20 22 21 16 12 11 11 9 8 8 7 7 6 6 6 5 5 5 4 4 4 4 4 4 4 4 3 2
6 5 5 4 4 5 5 6 6 8 8 8 8 10 14 16 16 18 17 10 9 9 8 8 7 7 6 6 6 5 6 6 5 5 5 5 5 4 4 3 2 3 2
5 9 6 4 4 5 5 6 7 7 8 8 8 8 8 8 10 10 10 9 8 8 7 7 7 6 6 6 6 6 6 6 6 6 5 5 4 3 3 3 2 2 2
3 4 6 4 5 4 5 6 6 6 7 7 7 8 9 8 9 8 8 8 8 7 8 7 7 6 6 6 6 6 7 6 6 6 5 4 4 3 3 2 2 2 2
5 5 4 4 4 5 5 5 6 7 7 8 7 8 9 8 8 8 8 8 7 6 6 6 6 6 6 6 7 7 7 7 6 6 5 4 4 4 3 2 3 3 3
3 4 4 4 4 5 6 6 7 7 7 8 8 8 8 8 8 8 8 7 7 6 6 6 6 7 7 6 6 6 6 6 6 5 5 4 4 4 4 3 3 3 3
3 4 4 4 4 5 5 6 6 8 8 9 8 8 8 8 8 8 8 7 7 7 7 7 7 10 8 7 6 6 6 6 6 5 7 5 4 4 3 3 3 4 4
4 4 4 4 5 5 6 7 7 7 8 8 8 8 8 8 8 8 8 8 8 7 8 8 7 10 11 12 12 12 9 8 8 6 5 5 5 5 4 1 3 4 6
5 5 4 4 5 5 6 6 7 7 7 7 7 7 7 7 8 8 9 10 8 8 9 7 10 14 14 10 13 12 10 9 9 8 5 4 4 4 3 4 5 4 5
Wind_Direction
331 327 328 323 321 319 310 304 299 298 296 295 290 287 282 277 272 268 264 257 251 250 242 232 237 233 234 246 255 242 229 220 239 131 104 118 139 151 135 132 135 128 141
336 331 326 324 320 314 310 306 304 303 303 299 295 289 283 276 271 264 260 255 253 246 242 241 239 218 229 236 240 237 217 205 220 163 151 137 114 108 117 107 109 121 121
334 331 329 320 318 315 311 310 315 312 313 312 308 303 296 285 273 259 252 249 247 245 245 251 262 253 239 225 239 240 228 195 191 153 145 134 108 124 101 85 88 70 59
331 328 322 321 319 317 318 320 320 322 320 320 317 312 305 300 287 256 247 243 237 241 236 240 239 237 243 247 239 236 196 161 155 139 133 121 113 105 99 123 90 68 171
329 324 325 327 325 323 324 325 327 328 327 326 325 322 315 309 299 315 266 235 221 235 232 240 250 255 255 251 231 199 164 141 146 143 129 123 114 140 135 118 113 134 74
326 331 332 330 329 331 332 335 334 335 337 336 337 336 334 331 318 259 228 200 203 237 195 70 51 63 71 93 98 93 108 146 139 128 114 135 128 106 106 137 132 122 120
336 334 332 333 333 337 337 339 343 342 341 347 348 348 355 0 13 58 62 60 68 61 56 47 53 65 84 91 81 75 69 70 67 84 117 95 107 121 132 127 96 97 111
339 337 335 337 339 340 340 344 346 345 350 355 356 357 6 17 24 40 64 64 66 59 53 47 58 63 65 95 91 79 68 59 63 79 86 90 100 101 95 98 109 108 102
344 339 338 339 342 342 347 349 348 352 359 4 10 10 17 24 32 31 52 60 62 55 48 44 52 71 67 79 90 89 81 72 66 75 80 83 85 86 96 112 95 131 114
343 338 334 344 343 345 346 349 350 1 360 2 16 19 25 26 27 30 32 46 55 51 49 42 51 58 53 55 76 88 88 87 92 83 67 60 60 67 58 54 107 124 102
338 340 345 354 348 348 352 354 352 352 357 5 15 18 23 22 27 29 31 41 43 52 46 39 40 55 61 60 65 74 83 92 72 76 70 66 62 50 50 46 45 47 82
352 358 358 354 353 357 4 359 356 355 1 10 13 16 15 16 29 34 34 46 48 56 49 52 61 66 58 54 63 73 72 77 85 80 77 63 60 56 58 60 63 66 60
9 2 352 352 356 6 5 357 356 2 3 15 17 11 11 12 12 15 26 37 40 57 56 59 53 50 54 56 50 53 54 61 73 77 74 68 56 54 54 54 55 75 80
358 349 352 358 355 9 11 7 11 6 13 24 20 23 22 23 10 0 26 29 31 44 42 46 51 56 54 48 45 43 50 49 55 59 58 48 36 42 37 12 9 345 64
349 347 350 358 2 358 13 34 39 35 35 21 24 33 26 29 11 33 45 39 31 24 57 46 42 40 43 40 46 44 44 39 43 35 39 49 38 48 41 12 14 20 57
347 348 347 348 353 354 3 5 32 50 47 40 36 40 43 34 31 38 44 46 39 24 56 45 43 40 40 35 34 34 33 31 27 29 28 27 31 28 34 29 35 39 35
350 355 355 12 9 6 11 13 4 349 29 40 31 34 35 33 34 30 28 48 38 37 47 38 36 29 20 23 24 26 23 16 10 26 31 24 19 31 29 28 21 20 16
8 7 12 8 10 9 13 19 25 25 19 16 21 28 24 28 34 31 19 43 37 36 39 35 29 21 15 12 11 14 10 4 9 18 21 25 23 27 31 23 16 6 5
4 4 358 7 17 21 23 31 33 33 31 27 19 18 13 17 30 34 32 46 43 37 29 31 23 20 9 0 359 0 9 7 2 15 20 24 21 24 25 17 10 13 5
6 1 15 16 29 30 26 35 34 36 35 33 28 16 8 19 29 26 29 35 36 32 24 22 17 12 5 359 356 1 5 12 12 11 13 13 12 15 14 360 7 4 26
6 9 6 37 42 35 35 43 41 40 38 35 30 24 10 37 32 29 27 28 24 22 18 17 13 2 358 358 360 2 4 4 2 0 1 359 355 3 358 351 21 34 50
15 15 27 38 45 47 40 39 44 41 37 36 27 21 9 33 32 30 28 22 15 11 3 356 0 2 360 356 351 356 359 358 355 350 348 348 359 12 21 11 35 40 61
17 27 38 36 43 47 48 40 43 41 40 38 34 26 21 25 26 24 16 7 5 1 358 4 4 1 359 354 351 354 355 349 339 339 346 358 17 10 31 25 22 48 54
28 66 61 51 50 56 54 50 44 44 43 42 35 29 24 20 19 14 10 5 7 4 5 4 3 4 356 357 355 358 359 350 351 348 13 15 14 19 38 32 19 56 70
44 57 63 59 63 63 58 51 49 46 45 40 35 28 18 17 18 17 13 11 13 5 3 3 4 1 1 360 4 4 357 348 8 347 17 22 27 32 55 17 44 71 80
67 59 65 69 68 66 62 60 54 50 46 40 32 25 18 13 15 17 16 16 12 10 6 5 3 3 0 359 359 350 350 355 5 2 26 24 31 31 39 43 70 77 86